Meteo Giornale » Osservazioni meteo Pakistan » Sialkot Airport
ore: 03:00 - Osservazioni Meteo Sialkot Airport
Lat. 32° 32' N Lon. 74° 22' E Alt. 247 metri s.l.m.
29 °C
Caligine
Temp. 24 Ore
29 °C
36 °C
Nord
0 Km/h
Dew point 24 °C
Umidità 74 %
Visibilità 4 Km
Il sole sorge alle ore 05:37
Il sole tramonta alle ore 18:26
| Data e Ora | Cielo e Fenomeni | T °C | DP °C | Um. % | Pres. hPa | Vis. km | Vento km/h | |
|---|---|---|---|---|---|---|---|---|
| Oggi h: 03:00 | Caligine | 29 | 24 | 74 | 1005 | 4 | N 0 | |
| Oggi h: 02:30 | Caligine | 29 | 24 | 74 | 1005 | 4 | N 0 | |
| Oggi h: 02:00 | Caligine | 29 | 24 | 74 | 1005 | 4 | N 0 | |
| Oggi h: 01:30 | Caligine | 29 | 24 | 74 | 1006 | 4 | N 0 | |
| Oggi h: 01:00 | Caligine | 29 | 24 | 74 | 1006 | 4 | N 0 | |
| Oggi h: 00:30 | Caligine | 29 | 25 | 79 | 1006 | 4 | N 0 | |
| Oggi h: 00:00 | Caligine | 29 | 25 | 79 | 1006 | 4 | N 0 | |
| Ieri h: 23:30 | Caligine | 30 | 25 | 74 | 1006 | 4 | N 0 | |
| Ieri h: 23:00 | Caligine | 30 | 25 | 74 | 1006 | 4 | N 0 | |
| Ieri h: 22:30 | Caligine | 30 | 25 | 74 | 1006 | 4 | N 0 | |
| Ieri h: 22:00 | Caligine | 31 | 25 | 70 | 1006 | 4 | N 0 | |
| Ieri h: 21:30 | Caligine | 32 | 25 | 66 | 1005 | 4 | N 0 | |
| Ieri h: 21:00 | Caligine | 32 | 25 | 66 | 1005 | 4 | N 0 | |
| Ieri h: 20:30 | Caligine | 32 | 25 | 66 | 1005 | 4 | NE 7.4 | |
| Ieri h: 20:00 | Caligine | 32 | 25 | 66 | 1004 | 4 | NE 11.1 | |
| Ieri h: 19:30 | Caligine | 32 | 25 | 66 | 1004 | 4 | NE 11.1 | |
| Ieri h: 19:00 | Caligine | 33 | 25 | 62 | 1004 | 5 | NE 11.1 | |
| Ieri h: 18:30 | Caligine | 34 | 24 | 56 | 1004 | 5 | NE 11.1 | |
| Ieri h: 18:00 | Caligine | 34 | 24 | 56 | 1004 | 5 | N 0 | |
| Ieri h: 17:30 | Caligine | 34 | 24 | 56 | 1003 | 5 | N 0 | |
| Ieri h: 17:00 | Caligine | 34 | 24 | 56 | 1003 | 5 | N 0 | |
| Ieri h: 16:30 | Caligine | 34 | 25 | 59 | 1003 | 5 | N 0 | |
| Ieri h: 16:00 | Caligine | 35 | 25 | 56 | 1003 | 5 | N 0 | |
| Ieri h: 15:30 | Caligine | 36 | 24 | 50 | 1003 | 5 | N 0 | |
| Ieri h: 15:00 | Caligine | 36 | 24 | 50 | 1003 | 5 | N 0 | |
| Ieri h: 14:30 | Caligine | 36 | 25 | 53 | 1004 | 5 | SO 11.1 | |
| Ieri h: 14:00 | Caligine | 36 | 24 | 50 | 1004 | 5 | SO 11.1 | |
| Ieri h: 13:30 | Caligine | 35 | 25 | 56 | 1004 | 5 | S 7.4 | |
| Ieri h: 13:00 | Caligine | 35 | 25 | 56 | 1004 | 5 | S 11.1 | |
| Ieri h: 12:30 | Caligine | 34 | 25 | 59 | 1004 | 5 | S 7.4 | |
| Ieri h: 12:00 | Caligine | 33 | 25 | 62 | 1004 | 5 | SE 7.4 | |
| Ieri h: 11:30 | Caligine | 33 | 25 | 62 | 1005 | 5 | SE 7.4 | |
| Ieri h: 11:00 | Caligine | 32 | 26 | 70 | 1004 | 4 | SE 7.4 | |
| Ieri h: 10:30 | Caligine | 31 | 25 | 70 | 1004 | 4 | NE 7.4 | |
| Ieri h: 10:00 | Caligine | 31 | 25 | 70 | 1004 | 4 | NE 7.4 | |
| Ieri h: 09:30 | Caligine | 31 | 25 | 70 | 1004 | 4 | NE 7.4 | |
| Ieri h: 09:00 | Caligine | 30 | 26 | 79 | 1004 | 4 | N 0 | |
| Ieri h: 08:30 | Caligine | 29 | 26 | 83 | 1004 | 4 | NE 7.4 | |
| Ieri h: 08:00 | Caligine | 29 | 26 | 83 | 1003 | 4 | NE 7.4 | |
| Ieri h: 07:30 | Foschia | 29 | 26 | 83 | 1003 | 3 | N 0 | |
| Ieri h: 07:00 | Foschia | 29 | 26 | 83 | 1003 | 3 | N 0 | |
| Ieri h: 06:30 | Foschia | 29 | 26 | 83 | 1003 | 3 | N 0 | |
| Ieri h: 06:00 | Foschia | 29 | 26 | 83 | 1002 | 3 | N 0 | |
| Ieri h: 05:30 | Caligine | 29 | 26 | 83 | 1002 | 4 | NE 7.4 | |
| Ieri h: 05:00 | Caligine | 29 | 26 | 83 | 1002 | 4 | N 0 | |
| Ieri h: 04:30 | Caligine | 30 | 26 | 79 | 1002 | 4 | N 0 | |
| Ieri h: 04:00 | Caligine | 30 | 26 | 79 | 1002 | 4 | N 0 | |



